Regional Weather Roundup
Issued by NWS

Home | Current Version | Previous Version | Graphics & Text | Print | Product List | Glossary On
Versions: 1 2 3 4 5 6 7 8 9 10 11 12 13 14 15 16 17 18 19 20 21 22 23 24 25 26 27 28 29 30 31 32 33 34 35 36 37 38 39 40 41 42 43 44 45 46 47 48 49 50
000
ASUS43 KDMX 152001
RWRIA

WEATHER ROUNDUP FOR IOWA
NATIONAL WEATHER SERVICE DES MOINES IA
200 PM CST SUN JAN 15 2017

NOTE: "FAIR" INDICATES FEW OR NO CLOUDS BELOW 12,000 FEET WITH NO
SIGNIFICANT WEATHER AND/OR OBSTRUCTIONS TO VISIBILITY.

* - THESE STATIONS ARE NOT NWS STATIONS...THUS NOT UNDER NWS
QUALITY CONTROL.  THEY ALSO DO NOT REPORT WEATHER SUCH
AS PRECIPITATION OR FOG.

IAZ001>003-012>014-020>022-031>034-043>046-152100-
   NORTHWEST IOWA

CITY           SKY/WX    TMP DP  RH WIND       PRES   REMARKS
CARROLL *      CLOUDY    34  21  60 E6        30.23F WCI  29
CHEROKEE *     CLOUDY    36  16  43 S6        30.22F WCI  31
DENISON *      CLOUDY    34  18  51 S6        30.20F WCI  29
LE MARS *      CLOUDY    37  14  38 S9        30.22F WCI  31
ORANGE CITY *  SUNNY     36  16  44 S8        30.20F WCI  29
SHELDON *      SUNNY     37  18  44 S8        30.18F WCI  31
SIOUX CITY     MOSUNNY   37  15  40 S6        30.21F WCI  32
SPENCER        SUNNY     34  20  56 S9        30.22F WCI  27
STORM LAKE *   CLOUDY    34  18  51 S8        30.21F WCI  27
$$

IAZ055>058-069>071-079>083-090>094-152100-
   SOUTHWEST IOWA

CITY           SKY/WX    TMP DP  RH WIND       PRES   REMARKS
ATLANTIC *     CLOUDY    34  21  60 SE5       30.23F WCI  30
AUDUBON *      CLOUDY    34  21  60 SE5       30.24F WCI  30
CLARINDA *     CLOUDY    32  30  93 SE5       30.26F WCI  27
COUNCIL BLFS * CLOUDY    32  27  80 S7        30.22F WCI  26
CRESTON *      CLOUDY    30  28  93 SE10      30.24F WCI  21
HARLAN  *      CLOUDY    34  19  55 SE6       30.25F WCI  29
LAMONI         CLOUDY    30  26  85 E6        30.24F FOG     WCI  24
RED OAK *      MIX PCPN  32  28  86 SE5       30.24F WCI  27
SHENANDOAH *   CLOUDY    32  28  86 E6        30.25F WCI  26
$$

IAZ047>049-059>061-072>074-084-152100-
   CENTRAL IOWA

CITY           SKY/WX    TMP DP  RH WIND       PRES   REMARKS
AMES           CLOUDY    33  19  56 SE7       30.28F WCI  27
ANKENY *       CLOUDY    32  19  59 E5        30.29F WCI  27
BOONE *        CLOUDY    32  19  59 SE6       30.25F WCI  26
CHARITON *     CLOUDY    30  25  80 E7        30.27F WCI  23
DES MOINES     CLOUDY    34  21  59 SE5       30.27F WCI  30
GRINNELL*      MOSUNNY   32  17  53 E6        30.29F WCI  26
KNOXVILLE *    CLOUDY    32  19  59 SE6       30.27F WCI  26
MARSHALLTOWN   CLOUDY    32  15  49 SE6       30.28F WCI  26
NEWTON *       CLOUDY    32  19  59 E7        30.28F WCI  26
PELLA *        CLOUDY    32  20  61 SE6       30.30F WCI  27
PERRY *        CLOUDY    32  22  67 E6        30.26F WCI  27
$$

IAZ004>006-015-016-023>025-035-036-152100-
   NORTH CENTRAL IOWA

CITY           SKY/WX    TMP DP  RH WIND       PRES   REMARKS
ALGONA *       SUNNY     34  21  60 S8        30.25F WCI  27
CLARION *      CLOUDY    32  21  64 S9        30.26F WCI  24
ESTHERVILLE    SUNNY     32  21  64 S12       30.22F WCI  23
FORT DODGE *   CLOUDY    32  16  51 S8        30.27F WCI  25
MASON CITY     CLOUDY    25  19  78 S7        30.27F WCI  17
FOREST CITY *    N/A     32  23  69 S6        30.26F WCI  26
WEBSTER CITY * MOSUNNY   28  23  80 SE6       30.25F WCI  22
IOWA FALLS *     N/A     32  20  62 SE5       30.29F WCI  27
$$

IAZ007>011-017>019-026>030-037>042-050>054-066-152100-
   NORTHEAST IOWA

CITY           SKY/WX    TMP DP  RH WIND       PRES   REMARKS
CEDAR RAPIDS   CLOUDY    31  13  47 E5        30.31F WCI  26
CHARLES CITY * CLOUDY    27  19  74 S3        30.29F
CLINTON *      CLOUDY    34  15  46 CALM      30.35F
DECORAH *      CLOUDY    27  18  69 SW5       30.29F WCI  21
DUBUQUE        SUNNY     30  17  58 CALM      30.31F
MONTICELLO *   MOSUNNY   32  18  55 CALM      30.33F
OELWEIN *      CLOUDY    28  21  74 S5        30.30F WCI  23
WATERLOO       CLOUDY    33  17  51 SE5       30.30F WCI  29
$$

IAZ064-065-067-068-078-152100-
   EAST CENTRAL IOWA

CITY           SKY/WX    TMP DP  RH WIND       PRES   REMARKS
DAVENPORT      CLOUDY    33  12  41 CALM      30.35S
IOWA CITY      CLOUDY    33  14  45 NE3       30.34F
MUSCATINE *    CLOUDY    34  12  40 CALM      30.35F
QUAD CITIES    CLOUDY    34  17  50 N5        30.34F WCI  30
$$

IAZ062-063-075>077-085>089-095>099-152100-
   SOUTHEAST IOWA

CITY           SKY/WX    TMP DP  RH WIND       PRES   REMARKS
BURLINGTON     CLOUDY    32  21  64 CALM      30.31F
FAIRFIELD *    CLOUDY    32  19  59 E6        30.30F WCI  26
FORT MADISON * CLOUDY    34  27  75 SE3       30.32F
KEOKUK *       CLOUDY    32  28  86 E5        30.31F WCI  27
OSKALOOSA *    CLOUDY    32  21  64 SE6       30.30F WCI  26
CENTERVILLE *  CLOUDY    30  25  80 CALM      30.28F
OTTUMWA        CLOUDY    32  21  64 E7        30.28F WCI  26
WASHINGTON *   CLOUDY    34  12  40 E5        30.33F WCI  30
$$

ABBREVIATIONS USED IN REMARKS
   TC - TEMPERATURES IN CELSIUS
  WCI - WIND CHILL INDEX
   HX - HEAT INDEX
  VSB - VISIBILITY
$$





USA.gov is the U.S. government's official web portal to all federal, state and local government web resources and services.